TimeHST,TemperatureF,Dew PointF,Humidity,Sea Level PressureIn,VisibilityMPH,Wind Direction,Wind SpeedMPH,Gust SpeedMPH,PrecipitationIn,Events,Conditions,WindDirDegrees,DateUTC
12:27 AM,75.2,69.8,83,30.10,10.0,ENE,18.4,-,N/A,,Overcast,70,2013-05-14 10:27:00
12:42 AM,75.2,69.8,83,30.11,10.0,ENE,17.3,-,N/A,,Overcast,70,2013-05-14 10:42:00
12:53 AM,75.0,69.1,82,30.10,10.0,ENE,16.1,-,N/A,,Overcast,70,2013-05-14 10:53:00
1:07 AM,75.2,69.8,83,30.10,10.0,ENE,13.8,-,N/A,,Overcast,70,2013-05-14 11:07:00
1:27 AM,75.2,69.8,83,30.10,10.0,ENE,16.1,21.9,N/A,,Overcast,70,2013-05-14 11:27:00
1:53 AM,75.0,69.1,82,30.08,10.0,ENE,18.4,-,N/A,,Overcast,70,2013-05-14 11:53:00
2:53 AM,73.9,70.0,87,30.07,10.0,ENE,13.8,-,N/A,,Mostly Cloudy,70,2013-05-14 12:53:00
3:03 AM,73.4,69.8,88,30.08,10.0,ENE,13.8,-,N/A,,Mostly Cloudy,70,2013-05-14 13:03:00
3:11 AM,73.4,69.8,88,30.07,10.0,ENE,13.8,-,N/A,,Scattered Clouds,70,2013-05-14 13:11:00
3:16 AM,73.4,69.8,88,30.07,10.0,ENE,15.0,-,N/A,,Mostly Cloudy,70,2013-05-14 13:16:00
3:26 AM,73.4,69.8,88,30.07,10.0,East,12.7,-,N/A,,Scattered Clouds,80,2013-05-14 13:26:00
3:53 AM,73.9,69.1,85,30.06,10.0,East,16.1,-,N/A,,Scattered Clouds,80,2013-05-14 13:53:00
4:53 AM,73.9,69.1,85,30.06,10.0,East,11.5,-,N/A,,Scattered Clouds,80,2013-05-14 14:53:00
5:53 AM,73.9,69.1,85,30.08,10.0,ENE,15.0,-,N/A,,Scattered Clouds,70,2013-05-14 15:53:00
6:18 AM,75.2,69.8,83,30.09,10.0,ENE,16.1,-,N/A,,Mostly Cloudy,70,2013-05-14 16:18:00
6:53 AM,75.0,69.1,82,30.09,10.0,East,16.1,-,N/A,,Partly Cloudy,80,2013-05-14 16:53:00
7:53 AM,77.0,71.1,82,30.11,10.0,ENE,15.0,-,N/A,,Overcast,70,2013-05-14 17:53:00
8:53 AM,78.1,70.0,76,30.12,10.0,ENE,15.0,-,N/A,,Overcast,70,2013-05-14 18:53:00
9:53 AM,78.1,71.1,79,30.13,10.0,ENE,12.7,-,N/A,,Mostly Cloudy,70,2013-05-14 19:53:00
10:53 AM,80.1,70.0,71,30.12,10.0,East,16.1,-,N/A,,Mostly Cloudy,80,2013-05-14 20:53:00
11:53 AM,81.0,70.0,69,30.12,10.0,ENE,15.0,-,N/A,,Mostly Cloudy,60,2013-05-14 21:53:00
12:53 PM,81.0,70.0,69,30.12,10.0,NE,12.7,-,N/A,,Scattered Clouds,50,2013-05-14 22:53:00
1:17 PM,80.6,71.6,74,30.12,10.0,ENE,13.8,-,N/A,,Mostly Cloudy,60,2013-05-14 23:17:00
1:24 PM,80.6,69.8,70,30.12,10.0,ENE,11.5,-,N/A,,Scattered Clouds,60,2013-05-14 23:24:00
1:53 PM,81.0,71.1,72,30.11,10.0,NE,12.7,-,N/A,,Mostly Cloudy,50,2013-05-14 23:53:00
2:53 PM,81.0,71.1,72,30.10,10.0,NE,13.8,-,N/A,,Scattered Clouds,50,2013-05-15 00:53:00
3:53 PM,80.1,70.0,71,30.09,10.0,NE,15.0,-,N/A,,Scattered Clouds,50,2013-05-15 01:53:00
4:42 PM,78.8,69.8,74,30.11,10.0,NE,15.0,-,N/A,,Mostly Cloudy,50,2013-05-15 02:42:00
4:53 PM,79.0,70.0,74,30.10,10.0,NE,16.1,-,N/A,,Mostly Cloudy,50,2013-05-15 02:53:00
5:53 PM,78.1,70.0,76,30.11,10.0,NE,11.5,-,N/A,,Mostly Cloudy,50,2013-05-15 03:53:00
6:22 PM,77.0,69.8,78,30.12,10.0,NE,15.0,-,N/A,,Mostly Cloudy,50,2013-05-15 04:22:00
6:53 PM,75.9,69.1,79,30.11,10.0,NE,12.7,-,N/A,,Overcast,50,2013-05-15 04:53:00
7:53 PM,75.9,69.1,79,30.13,10.0,ENE,13.8,-,N/A,,Mostly Cloudy,60,2013-05-15 05:53:00
8:53 PM,75.9,69.1,79,30.14,10.0,NE,12.7,-,N/A,,Overcast,50,2013-05-15 06:53:00
9:11 PM,75.2,69.8,83,30.15,10.0,NE,11.5,-,N/A,,Overcast,50,2013-05-15 07:11:00
9:42 PM,75.2,69.8,83,30.15,10.0,ENE,11.5,-,N/A,,Mostly Cloudy,60,2013-05-15 07:42:00
9:53 PM,75.9,69.1,79,30.15,10.0,NE,12.7,-,N/A,,Overcast,50,2013-05-15 07:53:00
10:41 PM,75.2,69.8,83,30.17,10.0,ENE,12.7,-,N/A,,Overcast,60,2013-05-15 08:41:00
10:53 PM,75.9,69.1,79,30.16,10.0,NE,13.8,-,N/A,,Overcast,50,2013-05-15 08:53:00
11:21 PM,75.2,69.8,83,30.16,10.0,ENE,11.5,-,N/A,,Mostly Cloudy,60,2013-05-15 09:21:00
11:29 PM,75.2,69.8,83,30.16,10.0,ENE,13.8,-,N/A,,Overcast,60,2013-05-15 09:29:00
11:53 PM,75.0,68.0,79,30.15,10.0,ENE,12.7,-,N/A,,Scattered Clouds,60,2013-05-15 09:53:00